This is the latest recevied weather packets stored in our database for station/object JS2WAD-13. If no packets are shown the sender has not sent any weather packets the latest 10 day(s).
| Time | Temp. | Humidity | Pressure | Rain* | Wind** | Luminosity | Snow |
|---|---|---|---|---|---|---|---|
| 1778124677 | 26.67° C | 48% | 903 hPa | 0 mm | - | 548 W/m² | - |
| 1778124377 | 26.67° C | 48% | 903.3 hPa | 0 mm | - | 394 W/m² | - |
| 1778124077 | 26.11° C | 50% | 903.2 hPa | 0 mm | - | 427 W/m² | - |
| 1778123778 | 26.11° C | 52% | 903.3 hPa | 0 mm | - | 519 W/m² | - |
| 1778123478 | 26.11° C | 52% | 903 hPa | 0 mm | - | 631 W/m² | - |
| 1778123177 | 25.56° C | 51% | 903.5 hPa | 0 mm | - | 302 W/m² | - |
| 1778122878 | 25.56° C | 52% | 903.6 hPa | 0 mm | - | 373 W/m² | - |
| 1778122578 | 25.56° C | 57% | 903.5 hPa | 0 mm | - | 408 W/m² | - |
| 1778122278 | 25° C | 52% | 903.5 hPa | 0 mm | - | 805 W/m² | - |
| 1778121978 | 25° C | 53% | 903.8 hPa | 0 mm | - | 606 W/m² | - |
| 1778121678 | 25° C | 55% | 903.7 hPa | 0 mm | - | 506 W/m² | - |
| 1778121377 | 25° C | 53% | 903.9 hPa | 0 mm | - | 359 W/m² | - |
| 1778121078 | 25° C | 53% | 903.9 hPa | 0 mm | - | 554 W/m² | - |
| 1778120778 | 24.44° C | 59% | 903.7 hPa | 0 mm | - | 163 W/m² | - |
| 1778120478 | 24.44° C | 55% | 903.9 hPa | 0 mm | - | 130 W/m² | - |
| 1778120178 | 24.44° C | 56% | 904.1 hPa | 0 mm | - | 141 W/m² | - |
| 1778119878 | 24.44° C | 57% | 903.7 hPa | 0 mm | - | 919 W/m² | - |
| 1778119578 | 23.89° C | 58% | 904.2 hPa | 0 mm | - | 828 W/m² | - |
| 1778119278 | 23.89° C | 61% | 904.2 hPa | 0 mm | - | 816 W/m² | - |
| 1778118978 | 23.33° C | 60% | 903.9 hPa | 0 mm | - | 274 W/m² | - |
| 1778118678 | 23.33° C | 61% | 903.8 hPa | 0 mm | - | 223 W/m² | - |
| 1778118378 | 23.33° C | 61% | 903.8 hPa | 0 mm | - | 775 W/m² | - |
| 1778118078 | 23.33° C | 63% | 903.8 hPa | 0 mm | - | 719 W/m² | - |
| 1778117778 | 22.78° C | 63% | 903.9 hPa | 0 mm | - | 181 W/m² | - |
| 1778117478 | 22.78° C | 64% | 904 hPa | 0 mm | - | 135 W/m² | - |
* Rain latest hour (hover to see other rain measurements)
** Current wind speed in m/s (hover to see current wind gust speed)